SERT 2

operational
NORAD ID: 4327 Int'l Des: 1970-009 Owner: LERC Country: US
LEOCIRCULARRETROGRADESSO

Über SERT 2

Beschreibung wird geladen...

Live-Position

3D-Globus wird geladen...

Nächste Überflüge

Höhenverlauf

Altitude vs Time

uPlot chart will show altitude changes over time

Zweizeiliger Elementsatz

1 4327U 70009A 26061.10366903 -.00000001 00000-0 55301-4 0 9995
2 4327 99.2749 4.6127 0004754 174.2277 196.6825 13.58729075778868
Epoch: 2. März 2026 • Age: 23 hours

Aktueller Status

Höhe 1059.5 km
Geschwindigkeit 7.32 km/s
Subsatellitenpunkt -42.77°S, 138.12°W
Typ other

Große Konstellationen

Loading constellations...